Location: Squirrel Cove
(50.1074°N, 124.9139°W)
Time: 12:40:37
(UTC-07:00)

PCSat - Pass Details

Date: 29 May 2022
Orbit: 784 x 795 km, 67.1° (Epoch: 26 June)

Event Time Altitude Azimuth Distance (km) Brightness Sun altitude
Rises 02:16:34 0° 322° (NW) 3,307 13.3 -17.0°
Reaches altitude 10° 02:19:00 10° 319° (NW) 2,373 12.5 -16.9°
Maximum altitude 02:24:23 64° 240° (WSW) 877 9.6 -16.7°
Enters shadow 02:27:56 21° 163° (SSE) 1,701 10.8 -16.6°
